Temp
6 6 7 6 6 6 6 6 6 6 6 6 6 6 6 6 6 6 7 7 7 7 7 7 7 7 7 7 7 7 7 7 7 7 7 8 7 7 7 7 7 7 7
6 7 6 6 6 6 6 6 6 6 6 6 6 6 6 6 6 7 7 7 7 7 7 7 7 7 7 7 7 7 7 7 7 7 7 7 7 7 7 7 8 8 8
6 7 6 6 6 6 6 6 6 6 6 6 6 6 6 6 7 7 7 7 7 7 6 6 6 7 7 7 7 7 7 7 7 7 7 7 7 7 7 7 7 8 8
6 7 6 6 6 6 6 6 6 6 6 6 6 6 6 6 7 7 7 7 7 7 7 7 7 6 6 6 6 7 7 7 7 7 7 7 7 7 7 7 7 7 7
4 7 6 6 6 6 6 6 6 6 6 6 6 6 6 6 6 6 7 7 7 7 7 7 7 7 6 6 6 6 6 6 7 7 7 7 7 7 6 7 7 7 7
5 4 4 6 6 6 6 6 6 7 7 6 6 6 6 6 6 6 6 6 6 7 7 7 7 7 7 6 6 6 6 6 6 7 7 7 7 7 7 7 7 7 7
6 5 6 5 6 6 6 6 6 7 7 7 6 7 6 7 7 6 6 6 6 6 7 7 7 7 7 7 6 6 6 6 6 6 6 7 7 7 7 6 6 7 7
5 6 5 6 6 7 6 6 6 7 7 7 7 7 7 7 7 7 7 6 6 6 6 7 7 7 7 6 6 6 6 6 6 6 7 6 7 6 7 7 6 6 6
5 5 5 6 6 6 6 6 6 6 6 6 7 7 6 7 6 7 7 6 7 6 6 6 6 7 7 7 7 6 6 6 6 6 6 6 6 6 6 6 6 6 6
5 5 5 5 5 6 6 6 6 6 6 6 6 6 6 6 6 6 6 6 6 6 6 6 6 6 7 7 7 7 6 6 6 6 6 6 6 6 6 6 6 6 6
5 5 5 5 5 5 5 5 6 6 6 6 6 6 6 6 6 6 6 6 6 6 6 6 6 5 6 7 7 7 7 6 6 6 6 6 6 6 6 6 6 6 6
4 5 5 5 5 5 5 5 5 5 5 6 5 5 5 5 5 6 6 6 6 6 6 6 6 6 6 6 6 7 7 6 6 6 6 6 6 6 6 6 6 6 6
4 4 4 4 4 4 4 5 5 5 5 5 5 5 5 5 5 5 5 5 5 6 6 6 6 6 6 6 5 6 6 6 6 6 6 6 6 6 6 6 6 6 6
3 3 3 4 4 4 4 4 4 4 4 4 5 5 5 5 5 5 5 5 5 5 5 6 6 6 6 6 6 5 6 6 6 6 6 6 6 5 5 5 5 5 6
3 3 3 3 4 4 4 4 4 4 4 4 4 4 4 4 4 4 5 5 5 5 5 5 5 5 5 5 6 5 5 6 6 6 6 5 5 5 5 5 5 5 5
3 3 3 3 3 3 3 4 4 4 4 4 4 4 4 4 4 4 4 4 4 4 4 4 4 4 5 5 5 5 5 5 5 6 6 6 5 4 5 5 5 5 5
2 2 2 3 3 3 3 3 3 3 3 4 4 4 4 4 4 4 4 4 4 4 3 4 4 4 4 4 5 5 4 4 5 5 5 5 5 5 5 5 5 5 5
2 2 2 2 2 2 2 2 2 2 2 2 2 3 3 3 3 3 3 3 3 3 3 3 3 3 3 3 4 4 4 3 4 4 5 5 5 5 5 5 5 5 5
1 1 1 1 0 0 -0 -0 -0 0 0 1 1 1 1 2 2 3 3 2 2 2 2 2 2 1 2 2 2 2 4 4 3 4 4 5 5 5 5 4 5 4 4
-0 -0 -1 -1 -1 -1 -2 -2 -2 -1 -1 -1 -1 -1 -0 -0 -0 0 1 2 2 2 1 1 1 1 0 1 1 1 2 3 3 3 3 4 5 5 5 5 5 5 5
-1 -1 -1 -2 -2 -2 -3 -3 -3 -3 -3 -3 -3 -3 -2 -2 -2 -2 -2 -1 -1 0 1 1 0 -0 -1 -0 0 0 1 1 1 2 2 3 4 4 4 5 5 5 5
-2 -2 -2 -3 -3 -3 -3 -4 -4 -4 -4 -4 -4 -4 -4 -4 -4 -4 -4 -4 -3 -2 -2 -2 -1 -1 -2 -2 -1 -1 -1 -1 0 1 0 1 3 3 4 4 4 5 5
-2 -2 -3 -3 -4 -4 -4 -5 -5 -5 -5 -6 -6 -6 -6 -6 -6 -6 -6 -6 -6 -5 -5 -4 -3 -3 -3 -3 -3 -3 -2 -2 -1 -1 -1 -0 1 2 3 3 4 4 5
-3 -3 -4 -4 -5 -5 -5 -6 -6 -6 -6 -6 -7 -7 -7 -7 -7 -7 -7 -7 -7 -7 -7 -7 -6 -6 -5 -6 -5 -5 -4 -3 -2 -1 -1 -1 -1 0 1 3 3 4 4
-4 -4 -5 -5 -6 -6 -6 -7 -7 -7 -7 -8 -8 -8 -8 -8 -8 -8 -8 -8 -8 -8 -8 -8 -8 -8 -8 -8 -8 -6 -6 -6 -3 -4 -2 -0 -0 0 0 1 2 3 4
-5 -5 -6 -6 -6 -7 -7 -8 -8 -8 -8 -8 -9 -9 -9 -9 -9 -9 -9 -9 -9 -9 -9 -9 -10 -10 -10 -9 -9 -9 -8 -6 -6 -6 -5 -3 -1 -0 -0 0 1 2 3
Height
3182 3183 3185 3186 3187 3189 3189 3189 3189 3188 3188 3187 3187 3186 3186 3185 3184 3183 3183 3183 3183 3183 3183 3183 3182 3182 3182 3182 3182 3183 3183 3183 3183 3183 3183 3183 3182 3183 3183 3183 3183 3183 3183
3181 3183 3185 3185 3186 3187 3188 3189 3189 3189 3188 3188 3187 3187 3186 3186 3185 3184 3183 3183 3182 3182 3182 3184 3182 3183 3182 3182 3182 3182 3182 3183 3183 3184 3183 3183 3183 3183 3184 3184 3184 3184 3185
3179 3182 3184 3184 3185 3186 3187 3187 3188 3188 3188 3188 3187 3187 3186 3185 3185 3183 3183 3183 3183 3182 3182 3182 3183 3182 3183 3183 3183 3184 3183 3183 3182 3183 3182 3183 3184 3183 3184 3184 3184 3185 3185
3177 3180 3182 3184 3185 3185 3185 3186 3186 3187 3187 3187 3187 3187 3186 3185 3184 3184 3183 3182 3181 3181 3181 3182 3182 3183 3182 3182 3183 3183 3183 3183 3183 3183 3183 3183 3183 3183 3184 3185 3185 3185 3185
3176 3178 3180 3183 3184 3185 3185 3185 3185 3185 3186 3185 3186 3186 3185 3185 3184 3183 3183 3182 3181 3180 3180 3180 3180 3181 3182 3181 3181 3183 3183 3183 3183 3182 3182 3182 3182 3182 3182 3182 3184 3184 3184
3175 3177 3178 3180 3181 3183 3184 3184 3184 3184 3184 3184 3184 3185 3185 3184 3183 3183 3182 3182 3181 3180 3180 3179 3179 3179 3179 3180 3180 3181 3182 3182 3182 3181 3181 3181 3182 3182 3182 3181 3183 3183 3184
3174 3175 3176 3178 3179 3180 3181 3182 3182 3183 3183 3183 3183 3183 3183 3183 3182 3181 3181 3180 3180 3179 3179 3179 3178 3177 3177 3178 3179 3179 3179 3180 3179 3179 3179 3180 3182 3182 3181 3180 3182 3182 3183
3173 3174 3175 3176 3176 3177 3178 3179 3180 3180 3180 3181 3180 3181 3180 3180 3180 3180 3179 3178 3178 3178 3178 3177 3177 3176 3176 3176 3176 3177 3177 3177 3177 3177 3177 3178 3179 3180 3180 3180 3180 3180 3181
3171 3172 3173 3173 3174 3174 3175 3175 3176 3176 3177 3178 3178 3178 3178 3177 3177 3177 3176 3175 3175 3175 3175 3174 3174 3174 3174 3173 3173 3173 3174 3174 3175 3175 3175 3175 3176 3177 3177 3178 3178 3179 3179
3169 3170 3170 3170 3170 3170 3171 3171 3171 3172 3173 3173 3174 3174 3175 3174 3174 3173 3173 3173 3172 3172 3171 3171 3171 3171 3171 3171 3170 3170 3170 3171 3172 3172 3172 3173 3174 3175 3174 3175 3175 3176 3177
3166 3166 3167 3167 3166 3167 3167 3167 3167 3167 3167 3168 3168 3168 3169 3169 3169 3168 3169 3169 3169 3169 3168 3168 3167 3167 3169 3168 3168 3167 3167 3167 3168 3169 3169 3170 3171 3171 3172 3172 3173 3173 3174
3162 3162 3163 3162 3162 3162 3161 3162 3162 3162 3161 3163 3163 3163 3163 3163 3163 3163 3163 3163 3164 3164 3164 3164 3163 3163 3163 3164 3164 3163 3163 3163 3164 3165 3166 3167 3167 3168 3169 3170 3170 3170 3171
3158 3158 3158 3157 3157 3156 3156 3156 3155 3155 3155 3155 3156 3156 3156 3156 3157 3157 3157 3157 3157 3157 3158 3158 3158 3158 3158 3158 3159 3160 3159 3159 3159 3160 3161 3162 3163 3164 3164 3165 3167 3167 3167
3154 3154 3153 3152 3151 3151 3150 3149 3149 3148 3148 3148 3148 3149 3149 3149 3149 3149 3150 3150 3150 3150 3149 3150 3152 3153 3153 3153 3153 3154 3154 3154 3154 3155 3155 3156 3158 3159 3160 3160 3162 3163 3164
3148 3148 3148 3147 3146 3146 3144 3144 3143 3142 3142 3141 3140 3140 3140 3141 3141 3140 3141 3141 3141 3141 3142 3142 3142 3144 3147 3146 3146 3147 3148 3148 3149 3149 3150 3151 3152 3153 3154 3156 3156 3158 3159
3144 3144 3143 3142 3142 3141 3140 3140 3139 3138 3136 3135 3134 3133 3132 3131 3131 3131 3131 3131 3131 3131 3132 3133 3133 3134 3136 3137 3138 3139 3141 3142 3142 3142 3144 3145 3147 3147 3147 3149 3151 3152 3154
3140 3139 3139 3138 3137 3137 3136 3135 3134 3132 3131 3129 3128 3126 3125 3124 3123 3122 3122 3121 3121 3121 3121 3122 3123 3123 3125 3126 3128 3130 3130 3133 3134 3135 3136 3138 3139 3141 3140 3142 3144 3146 3147
3135 3135 3135 3134 3134 3133 3132 3130 3128 3126 3125 3123 3121 3119 3117 3116 3115 3113 3113 3112 3111 3110 3110 3110 3111 3112 3113 3114 3116 3119 3120 3123 3125 3127 3128 3130 3131 3133 3134 3135 3137 3139 3141
3131 3131 3130 3130 3129 3127 3125 3122 3120 3118 3116 3114 3112 3111 3110 3108 3106 3105 3103 3102 3101 3101 3100 3100 3100 3099 3101 3102 3103 3107 3110 3111 3115 3117 3119 3121 3123 3125 3127 3128 3129 3131 3133
3126 3126 3125 3124 3123 3121 3118 3116 3113 3111 3109 3106 3105 3103 3102 3101 3099 3098 3096 3095 3093 3091 3090 3089 3089 3089 3088 3089 3091 3093 3097 3100 3102 3105 3109 3112 3114 3117 3119 3120 3121 3123 3125
3120 3120 3120 3119 3117 3116 3114 3111 3108 3105 3104 3102 3099 3097 3094 3092 3090 3089 3087 3086 3084 3083 3080 3078 3078 3078 3079 3076 3077 3079 3083 3089 3092 3095 3099 3102 3105 3108 3110 3112 3113 3114 3117
3114 3114 3113 3112 3111 3109 3107 3105 3104 3101 3098 3096 3093 3090 3087 3084 3081 3079 3077 3075 3074 3074 3071 3069 3066 3066 3068 3067 3065 3066 3070 3078 3077 3080 3086 3090 3095 3099 3100 3103 3103 3106 3108
3107 3106 3105 3104 3103 3101 3099 3098 3095 3093 3091 3089 3086 3083 3079 3075 3072 3069 3066 3064 3062 3061 3061 3059 3057 3054 3055 3059 3057 3056 3058 3059 3062 3068 3070 3076 3082 3087 3090 3092 3094 3096 3099
3099 3098 3098 3097 3096 3095 3093 3092 3090 3089 3087 3084 3081 3077 3073 3068 3064 3061 3058 3054 3052 3051 3050 3049 3048 3046 3043 3046 3049 3048 3046 3047 3050 3049 3060 3066 3068 3073 3079 3082 3084 3085 3089
3093 3094 3093 3092 3091 3089 3087 3085 3083 3080 3078 3075 3072 3069 3065 3061 3056 3053 3050 3046 3044 3042 3040 3039 3038 3037 3035 3034 3036 3037 3037 3037 3039 3037 3043 3052 3050 3055 3065 3071 3073 3075 3079
3088 3088 3087 3086 3084 3082 3080 3078 3076 3073 3070 3067 3063 3060 3058 3054 3050 3046 3042 3039 3036 3033 3031 3030 3028 3027 3026 3025 3026 3026 3026 3024 3029 3026 3026 3034 3037 3046 3048 3054 3059 3064 3069
Wind_Speed
18 14 13 10 6 2 3 2 3 4 4 4 4 4 3 3 3 3 3 2 2 2 2 2 2 1 1 2 3 4 4 4 4 4 5 5 6 5 4 4 4 3 2
17 14 12 11 7 3 1 1 2 2 3 4 5 4 4 5 5 5 6 6 5 4 3 3 2 3 2 3 3 3 3 3 2 2 2 2 3 4 3 3 3 2 2
18 17 13 12 9 6 3 3 2 1 3 3 3 5 6 6 6 7 6 6 6 5 5 3 3 3 4 4 3 3 3 1 1 1 1 1 2 2 2 3 3 2 3
17 19 16 13 10 8 7 5 5 3 2 2 3 3 5 5 7 7 7 7 8 7 6 5 5 5 4 4 4 4 5 5 4 3 4 4 4 5 5 5 5 4 3
12 15 14 15 12 11 10 8 8 5 4 4 4 5 5 6 7 8 8 8 8 8 8 7 6 7 7 7 5 6 7 7 8 6 5 6 6 7 7 6 5 5 5
13 13 16 14 15 13 13 13 12 11 8 7 6 6 7 7 8 8 9 10 9 9 9 8 8 8 9 9 9 8 9 9 10 9 9 8 8 10 8 8 8 8 7
11 12 12 12 14 13 14 15 16 15 14 12 11 10 9 10 10 9 10 11 11 11 11 12 10 9 10 10 11 10 10 11 12 12 12 12 9 8 10 11 11 11 11
10 10 12 13 13 14 14 15 17 17 18 17 17 16 15 14 13 12 12 12 13 13 12 13 13 13 12 12 12 12 12 13 14 15 14 14 12 9 12 12 12 13 14
11 11 12 14 15 16 18 18 19 20 21 22 22 21 21 21 20 18 18 17 17 16 15 14 14 14 14 15 14 14 15 15 15 16 17 15 14 14 13 13 14 13 16
15 15 16 17 18 19 21 22 22 22 21 23 24 24 24 25 24 23 22 21 20 20 18 17 16 17 14 15 16 16 16 16 17 18 18 17 16 16 16 15 15 15 17
19 20 21 22 23 24 25 26 26 27 26 26 27 27 28 28 27 28 26 26 25 23 22 22 21 18 20 17 16 17 17 18 18 19 19 18 17 17 17 17 18 18 18
21 22 24 25 26 27 29 30 30 31 32 31 31 31 32 33 33 32 31 31 31 29 27 26 24 23 20 22 21 19 19 19 20 20 20 19 19 19 19 20 21 20 19
23 24 26 27 28 29 30 31 32 32 34 34 35 35 36 37 38 38 37 37 37 36 35 32 30 28 26 25 24 25 22 22 23 22 21 21 21 22 21 20 20 21 20
24 24 24 25 25 26 27 29 30 32 34 35 37 37 38 39 40 41 41 41 42 41 41 40 36 34 33 30 29 25 26 25 26 26 25 22 23 23 22 22 23 22 22
19 18 18 18 18 20 21 22 24 25 27 29 31 33 36 39 41 43 44 44 44 45 44 45 44 42 38 37 36 34 29 29 28 28 28 26 23 24 25 24 25 25 24
15 15 15 15 16 17 18 20 22 23 25 27 28 30 32 34 36 38 42 45 47 48 47 47 48 48 45 43 41 39 36 33 32 30 30 29 28 26 27 26 26 27 27
14 14 14 15 16 17 17 18 18 19 21 22 24 26 28 30 33 36 38 41 44 47 50 51 52 52 52 49 46 44 43 39 36 35 33 32 31 31 32 31 28 28 28
15 15 16 16 16 15 15 16 17 18 20 21 23 24 26 27 29 32 35 38 41 44 47 50 52 54 55 52 52 49 47 45 41 39 38 35 35 33 34 34 33 31 30
16 16 16 16 15 16 17 18 19 21 23 25 26 26 27 28 30 32 36 38 38 41 44 47 50 55 54 55 55 53 51 51 47 45 43 40 38 37 36 37 36 35 33
17 16 16 16 16 16 18 19 21 23 25 27 28 29 29 30 30 31 33 36 40 43 44 45 47 50 55 57 58 59 53 55 54 51 48 45 41 39 38 39 39 38 37
16 16 18 18 18 18 18 20 22 24 25 26 29 30 31 31 32 32 33 34 36 40 44 47 46 47 49 57 60 62 59 58 53 55 44 49 45 43 40 40 40 40 38
17 18 18 19 20 20 21 21 22 24 26 27 28 30 32 32 33 34 34 35 36 37 40 44 48 49 46 49 57 61 63 55 60 57 51 48 49 47 45 42 42 41 39
19 20 21 23 23 23 23 24 25 27 28 28 29 30 31 32 34 35 36 37 38 39 39 41 46 49 49 44 47 55 59 60 59 49 55 51 46 52 47 43 45 42 40
20 21 23 24 25 25 25 24 25 25 26 27 27 28 30 32 34 35 37 39 40 40 40 41 42 45 49 46 44 45 53 61 61 66 55 56 46 49 47 45 45 45 41
21 22 24 24 25 25 25 25 26 27 27 27 28 29 30 32 35 37 38 39 40 41 41 42 42 42 45 46 43 46 50 51 67 49 60 43 41 47 39 44 44 45 43
21 24 25 26 27 27 26 26 27 27 28 28 29 29 30 32 34 36 38 39 41 42 42 42 43 42 42 44 42 43 47 53 53 66 49 53 50 54 46 43 43 44 42
Wind_Direction
175 176 168 166 164 87 357 37 40 49 54 47 48 39 23 12 350 323 304 289 246 262 237 196 199 296 311 333 359 17 25 33 53 52 53 75 84 93 106 112 145 163 154
178 190 175 177 173 173 277 289 10 20 36 42 36 26 26 15 7 353 332 324 310 286 267 236 223 228 260 287 307 332 6 17 35 54 63 53 114 128 119 122 126 142 157
185 187 182 184 186 194 201 245 270 323 350 358 11 25 25 11 358 357 347 336 327 324 310 284 252 247 229 242 261 287 287 238 187 261 243 208 176 183 165 168 162 170 158
192 192 194 196 197 203 216 229 241 256 273 298 309 331 348 0 5 353 351 344 338 337 332 307 294 277 268 257 252 266 273 276 262 259 262 246 228 201 206 208 192 193 189
188 188 203 205 207 214 229 231 242 244 255 264 284 303 316 325 336 346 350 344 340 331 328 318 301 291 280 273 273 258 260 263 270 266 256 267 262 229 215 216 221 207 208
186 201 190 212 216 221 227 232 237 247 252 263 274 286 292 302 309 317 325 336 337 325 317 313 305 297 289 284 272 263 256 257 260 267 269 260 259 257 232 221 222 224 215
193 200 204 220 222 231 232 236 240 247 254 260 270 276 286 290 293 300 305 310 314 315 318 310 301 293 288 283 281 277 270 262 261 257 260 264 261 262 248 226 222 225 220
215 223 227 231 242 250 247 247 250 255 257 260 266 274 277 279 284 288 291 293 299 302 308 309 301 293 286 282 281 281 274 268 264 262 256 254 259 261 258 247 230 227 226
233 239 247 253 254 261 268 269 266 264 261 264 267 271 274 278 279 281 284 284 288 290 291 292 292 288 282 281 279 280 279 273 268 265 263 259 254 258 258 253 245 234 232
241 248 252 257 263 267 269 271 272 270 268 266 268 272 271 274 277 279 279 282 282 285 287 287 290 287 278 276 275 276 277 276 270 266 265 263 259 257 260 255 250 245 243
253 257 260 262 264 266 269 270 271 272 271 270 271 270 270 270 271 275 278 281 279 278 279 281 283 286 288 279 271 267 264 270 270 268 266 264 260 256 258 257 258 251 248
258 261 264 266 267 268 269 270 271 271 271 269 269 269 270 270 270 271 272 274 277 276 274 275 275 277 279 282 280 269 263 259 263 264 263 259 256 257 258 257 254 253 251
265 268 270 271 272 272 273 273 273 273 273 272 270 268 267 268 268 269 270 271 272 273 273 271 270 270 272 275 277 277 273 265 259 258 257 257 255 255 252 253 256 252 250
263 266 268 270 271 273 273 274 274 275 274 273 272 271 270 269 268 268 268 268 269 270 270 270 267 267 269 271 273 268 269 270 268 262 256 251 251 252 252 250 254 255 252
264 266 268 271 274 276 277 278 278 278 277 277 276 275 273 272 270 270 270 268 267 267 267 267 268 265 263 266 268 268 262 263 262 263 260 256 250 249 251 249 249 253 253
257 260 263 268 272 276 278 280 281 282 282 281 281 280 278 277 275 272 270 269 268 267 267 266 267 267 263 260 261 263 262 259 260 259 257 255 249 245 247 249 250 252 253
251 260 267 273 278 281 283 284 286 288 289 289 287 285 283 281 279 277 275 272 270 268 266 265 265 265 265 263 259 258 259 257 256 257 256 254 252 247 248 247 247 250 253
256 263 267 269 272 276 280 287 294 299 302 303 302 301 298 295 290 285 280 276 274 272 269 265 264 263 264 261 261 256 255 254 254 255 253 253 253 249 250 250 248 247 250
259 265 272 279 286 293 299 306 311 314 316 316 314 312 308 304 299 294 292 289 283 277 273 269 265 264 261 260 259 258 254 255 253 253 253 250 251 252 247 251 252 248 246
263 275 284 288 292 299 306 311 314 317 318 317 315 313 309 306 301 295 290 284 280 280 279 274 270 266 263 260 257 257 255 255 257 250 248 250 248 250 252 249 250 251 247
272 281 283 287 295 301 307 313 316 314 314 314 313 313 311 309 305 301 296 289 283 278 276 277 275 269 264 263 260 256 255 254 258 257 251 247 250 250 250 252 251 250 249
276 283 288 294 299 304 307 309 310 311 313 314 314 314 314 312 309 306 303 298 293 287 283 279 276 275 271 266 261 258 258 255 255 254 253 253 248 251 248 249 251 250 250
284 293 299 302 303 306 308 311 314 316 317 318 317 316 314 313 311 310 308 305 302 298 292 285 282 279 276 269 265 261 256 252 251 254 247 251 254 248 249 245 248 248 247
293 298 300 300 301 303 306 307 307 307 308 311 313 315 316 315 314 313 311 308 305 301 297 292 286 281 280 278 266 261 256 253 253 249 254 254 256 242 247 245 244 246 245
295 296 297 295 296 299 301 304 306 309 312 314 318 320 321 320 319 316 313 310 307 303 298 293 287 284 280 280 277 264 255 255 249 254 241 232 231 224 239 245 241 244 245
290 296 294 292 294 296 299 302 304 308 313 317 320 322 323 321 318 315 314 311 308 304 299 293 287 283 280 278 279 274 264 259 254 250 248 240 240 238 235 235 238 240 242